Regional Weather Roundup
Issued by NWS

Home | Current Version | Previous Version | Graphics & Text | Print | Product List | Glossary On
Versions: 1 2 3 4 5 6 7 8 9 10 11 12 13 14 15 16 17 18 19 20 21 22 23 24 25 26 27 28 29 30 31 32 33 34 35 36 37 38 39 40 41 42 43 44 45 46 47 48 49 50
000
ASUS45 KTFX 291104
RWRMT
MONTANA HOURLY WEATHER ROUNDUP
NATIONAL WEATHER SERVICE GREAT FALLS MT
504 AM MDT SUN MAR 29 2015

NOTE: "FAIR" INDICATES FEW OR NO CLOUDS BELOW 12000 FEET WITH NO
SIGNIFICANT WEATHER AND/OR OBSTRUCTIONS TO VISIBILITY.

* THESE STATIONS ARE NOT UNDER NWS QUALITY CONTROL. THEY DO NOT
   REPORT WEATHER SUCH AS PRECIPITATION OR FOG.

MTZ001>007-043-291200-
WEST OF THE DIVIDE
CITY           SKY/WX    TMP DP  RH WIND       PRES   REMARKS
KALISPELL      PTCLDY    37  34  89 S8        30.25S WCI  31
MISSOULA       MOCLDY    34  28  79 E6        30.32F WCI  29
BUTTE          PTCLDY    28  19  69 S6        30.30S WCI  21
MULLAN PASS    MOCLDY    30  28  92 SW7       30.25F WCI  23
* LINCOLN      N/A       39  27  62 S6G14      N/A   WCI  35
* POLSON       N/A       35  33  92 SE1        N/A
* RONAN APT    MOCLDY    37  34  89 SE5        N/A   WCI  33
* SEELEY LAKE  N/A       32  30  92 N3         N/A
* THOMP F APT  MOCLDY    34  13  42 NW2G16     N/A
$$

MTZ008-052>055-291200-
SOUTHWEST MONTANA
CITY           SKY/WX    TMP DP  RH WIND       PRES   REMARKS
BOZEMAN        CLEAR     28  19  69 S7        30.30R WCI  21
DILLON         PTCLDY    28  18  66 W5        30.30S WCI  22
* W YELLOWSTON CLEAR     21  17  84 N/A        N/A
* THREE FORKS  PTCLDY    36  21  54 N/A        N/A
* TWIN BRIDGES PTCLDY    27  16  63 N/A        N/A
* BOULDER HILL N/A       32  18  56 SW4        N/A
* HOMESTAKE PS N/A       29  20  69 W2         N/A
* WHITEHALL    N/A       34  20  57 W5         N/A   WCI  29
* WISE RIVER   N/A       28  21  75 NW1        N/A
$$

MTZ009>010-012-014-046-048-049-054-291200-
EAST SLOPES AND CENTRAL MONTANA
CITY           SKY/WX    TMP DP  RH WIND       PRES   REMARKS
CUT BANK       PTCLDY    39  28  65 W20       30.09F WCI  29
GREAT FALLS    CLEAR     39  28  65 SW15      30.16F WCI  31
HELENA         MOCLDY    41  25  53 W7        30.26R
MALMSTROM AFB  CLEAR     41  28  60 SW18      30.17S
* EAST GLACIER N/A       39  28  65 W15G29     N/A   WCI  31
* MONARCH      N/A       35  22  59 SW13       N/A   WCI  26
* ROGERS PASS  N/A       35  26  70 E11G24     N/A   WCI  27
* SAINT MARY   N/A       40  28  62 S7G19      N/A   WCI  35
$$

MTZ011-013-016-021-035-040-045-047-050-051-291200-
NORTH CENTRAL MONTANA
CITY           SKY/WX    TMP DP  RH WIND       PRES   REMARKS
HAVRE          PTCLDY    36  34  92 SW13      30.12S WCI  27
LEWISTOWN      CLEAR     37  28  70 SW14      30.17R WCI  28
* N BAR RANCH  CLEAR     32  27  82 CALM      30.17S
* MALTA APT    PTCLDY    34  28  79 N/A        N/A
* CHESTER      N/A       31  27  85 S2G10      N/A
$$

MTZ017>020-022>027-061-062-291200-
NORTHEAST MONTANA
CITY           SKY/WX    TMP DP  RH WIND       PRES   REMARKS
GLASGOW        CLEAR     37  34  89 NW5       30.08R WCI  33
GLENDIVE       CLEAR     36  32  85 W9        30.10R WCI  29
JORDAN         CLEAR     36  34  92 W6        30.12S WCI  31
SIDNEY         CLEAR     37  34  89 W10       30.05R WCI  30
WOLF POINT     CLEAR     37  34  89 W9        30.07R WCI  30
* CIRCLE       N/A       35  33  92 N/A        N/A
* SACO         N/A       36  34  92 W9         N/A   WCI  29
$$

MTZ028>042-056>058-291200-
SOUTHCENTRAL AND SOUTHEAST MONTANA
CITY           SKY/WX    TMP DP  RH WIND       PRES   REMARKS
BAKER          CLEAR     36 N/A N/A NW16      30.09R WCI  26
BILLINGS       CLEAR     45  23  42 W20       30.20R
LIVINGSTON     CLEAR     39  21  48 W15       30.24F WCI  31
MILES CITY     CLOUDY    43  36  76 NW9       30.16S
* LAUREL APT   CLEAR     46  19  34 W21        N/A
* ROUNDUP APT  CLEAR     43  25  49 W10G18     N/A
* ALZADA       N/A       40  34  79 W12G19     N/A   WCI  33
* HYSHAM       N/A       39  30  70 W2G7       N/A
* LAME DEER    N/A       40  31  70 NW11G19    N/A   WCI  33
* ROSCOE HILL  N/A       41   8  25 N4         N/A
$$

REGIONAL REPORTS...DAKOTAS
CITY           SKY/WX    TMP DP  RH WIND       PRES   REMARKS
WILLISTON      CLEAR     37  34  89 NW16      30.00R WCI  28
DICKINSON      CLEAR     36  30  79 NW17      29.97R WCI  26
CROSBY         CLEAR     34  34 100 NW16      29.97R WCI  24
WATFORD CITY   CLEAR     36  32  85 NW15G20   29.98R WCI  27
BISMARCK       CLOUDY    41  36  82 NW31G45   29.81R
GRAND FORKS    CLOUDY    41  37  86 N30G46    29.52R
FARGO          RAIN      46  43  89 NW18      29.47R
BUFFALO SD     PTCLDY    39  36  89 NW41G58   29.93R WCI  25
RAPID CITY     PTCLDY    45  28  51 NW56G75   29.97R
$$

REGIONAL REPORTS...WYOMING/IDAHO/WASHINGTON
CITY           SKY/WX    TMP DP  RH WIND       PRES   REMARKS
GILLETTE       FAIR      39  30  70 NW13      30.19R WCI  31
SHERIDAN       PTCLDY    43  25  49 NW16      30.21R
CODY           PTCLDY    37  16  42 NE5       30.23R WCI  33
YELLOWSTONE LA PTCLDY    19  12  74 CALM      30.33R
SALMON         MOCLDY    27  19  72 CALM      30.35S
MULLAN PASS    MOCLDY    30  28  92 SW7       30.25S WCI  23
SAND POINT     MOCLDY    36  36 100 CALM      30.27F
SPOKANE        CLOUDY    43  36  76 S7        30.26S
$$

REGIONAL REPORTS...SASKATCHEWAN
CITY           SKY/WX    TMP DP  RH WIND       PRES   REMARKS
SWIFT CURRENT  MOCLDY    34  32  92 W16G22    30.03R WCI  24

$$




USA.gov is the U.S. government's official web portal to all federal, state and local government web resources and services.